THORAD DELTA 1 DEB, 8179

Orbit data source: Space-Track

THORAD DELTA 1 DEB, 8179 is space debris in SSO originally from a launch on Fri, 15 Nov 1974 UTC launched from the Air Force Western Test Range (AFWTR). Debris objects in space refer to the collection of defunct objects orbiting the Earth. Examples of debris include non-operational satellites, rocket bodies, and fragments generated from explosions, collisions, or faulty payload assembly.

Loading next visibility...
Identifier
8179, 1974-089AV
Orbit
SSO
Country
Flag of USUS
Related business
Manufacturer
Unknown
Mission
Spacecraft
Bus & Motor
Unknown
Mass
Unknown
Launch date (UTC)
1974-11-15 (51 years ago)
Launch vehicle
Unknown
Launch site
Air Force Western Test Range (AFWTR)
Object type
Payload
Rocket body
Debris
Shape & HBR
Unknown shape, 0.3 m
Radar Cross Section
Medium (>0.1 m² and <1 m²)

Expand to show TLE details & history
Last TLE update: 14 hours ago

TLE from 14 hours ago
0 THORAD DELTA 1 DEB
1 08179U 74089AV  25350.31407688  .00000031  00000-0  57565-3 0  9990
2 08179 101.5254 108.3663 0100503 232.1483 152.1858 12.33913732300337
Epoch: 2025-12-16T07:32Z
TLE epoch observation values (Epoch: 2025-12-16T07:32:16.242Z)
Latitude
24.356°
Longitude
-95.17238°
Altitude
1,605.646 km
Speed
7.038 km/s
True Right ascension
06h 52m 22s
True Declination
24° 14' 27"
Sunlit
Object was in full shadow at epoch
Visualization orbit readout
Latitude
Unknown
Longitude
Unknown
Altitude
Unknown
Speed
Unknown
Apparent Right ascension
Unknown
Apparent Declination
Unknown
Sunlit
N/A
Visualization observer readout
Local Sidereal Time
20:31:35
Azimuth
Unknown
Elevation
Unknown
Doppler factor
Unknown
Orbital elements
Apogee altitude
1,609.544 km
Perigee altitude
1,450.584 km
Semi-major axis
7,908.201 km
Eccentricity
0.01005
Inclination
101.5254°
RAAN
108.3663°
Arg. of periapsis
232.1483°
True anomaly
152.71726°
Mean anomaly
152.1858°
Eccentric anomaly
152.45212°
Mean motion
3.08622 °/min
Orbital period
116.65 mins
BSTAR
0.00057565
Loading maneuver chart data...
Computing Atmospheric mass density...

Documentation

Showing up to 5 results
|